Overview Statistics Trail Chart Weather Telemetry Raw packets
 

This is the latest recevied weather packets stored in our database for station/object W4UWO. If no packets are shown the sender has not sent any weather packets the latest 10 day(s).

<< 23 24 25 26 27 28 29 >>
Time Temp. Humidity Pressure Rain* Wind** Luminosity Snow
1788463574 38.33° C 36% 1016.5 hPa 0 mm - 736 W/m² -
1788463274 37.78° C 37% 1016.8 hPa 0 mm - 747 W/m² -
1788462970 37.78° C 38% 1016.8 hPa 0 mm - 747 W/m² -
1788462665 38.33° C 37% 1016.6 hPa 0 mm - 766 W/m² -
1788462365 38.33° C 36% 1017 hPa 0 mm - 768 W/m² -
1788462065 37.78° C 37% 1016.8 hPa 0 mm - 781 W/m² -
1788461760 37.78° C 37% 1017 hPa 0 mm - 786 W/m² -
1788461455 37.78° C 38% 1016.9 hPa 0 mm - 788 W/m² -
1788461152 37.78° C 37% 1017.2 hPa 0 mm - 793 W/m² -
1788460847 37.78° C 38% 1017.1 hPa 0 mm - 797 W/m² -
1788460545 37.22° C 39% 1017.2 hPa 0 mm - 805 W/m² -
1788460241 37.22° C 40% 1017.3 hPa 0 mm - 803 W/m² -
1788459939 37.78° C 41% 1017.3 hPa 0 mm - 810 W/m² -
1788459636 37.78° C 39% 1017.4 hPa 0 mm - 815 W/m² -
1788459334 37.78° C 38% 1017.5 hPa 0 mm - 817 W/m² -
1788459034 37.22° C 40% 1017.7 hPa 0 mm - 828 W/m² -
1788458729 36.67° C 40% 1017.7 hPa 0 mm - 823 W/m² -
1788458429 37.22° C 41% 1017.6 hPa 0 mm - 823 W/m² -
1788458128 37.78° C 39% 1017.8 hPa 0 mm - 830 W/m² -
1788457856 37.78° C 40% 1017.9 hPa 0 mm - 829 W/m² -
1788457522 36.67° C 41% 1018.1 hPa 0 mm - 829 W/m² -
1788457218 37.22° C 42% 1018 hPa 0 mm - 851 W/m² -
1788456912 37.22° C 42% 1018 hPa 0 mm - 880 W/m² -
1788456609 36.67° C 44% 1018.2 hPa 0 mm - 859 W/m² -
1788456303 37.22° C 42% 1018.1 hPa 0 mm - 834 W/m² -

* Rain latest hour (hover to see other rain measurements)
** Current wind speed in m/s (hover to see current wind gust speed)